CAS500-1

Last updated on Mon Sep 21 2026 00:02:46 GMT+0000 (Coordinated Universal Time)

1 47932U 21022A 26263.64038074 .00003958 00000+0 18596-3 0 9999 2 47932 97.3754 156.8844 0004315 329.2387 30.8595 15.20171451305268
UTC large
Height (km)
Speed (km/s)
/
Latitude / Longitude
Inclination (degrees)
Orbital Period (minutes)
Azimuth
Elevation
Range (km)
Doppler Factor

Next 0 passes for location: London (51.5072 / 0.1276)

No passes found over London.
CAS500-1